KB6LA Weather Reports


time (UTC)temp
C
wind
direction
speed
KPH
gust
KPH
rain 1hr
cm
rain 24hr
cm
rain mn
cm
humidity
%
barometer
mb
20260906004919 26 273 9.7 11.3 0.00 0.00 0.00 48 1011.1
20260906004318 26 277 6.4 6.4 0.00 0.00 0.00 47 1011.1
20260906003717 26 272 6.4 9.7 0.00 0.00 0.00 47 1011.1
20260906003118 26 278 8.0 9.7 0.00 0.00 0.00 49 1010.7
20260906002517 26 249 9.7 12.9 0.00 0.00 0.00 48 1011.1
20260906001916 26 231 8.0 11.3 0.00 0.00 0.00 51 1011.1
20260906000716 26 248 12.9 14.5 0.00 0.00 0.00 52 1011.1
20260906000119 26 239 6.4 11.3 0.00 0.00 0.00 50 1011.1
20260905234918 26 249 9.7 14.5 0.00 0.00 0.00 50 1010.7
20260905234317 26 253 6.4 6.4 0.00 0.00 0.00 53 1010.7
20260905233117 27 206 11.3 12.9 0.00 0.00 0.00 51 1010.7
20260905232517 27 260 9.7 12.9 0.00 0.00 0.00 52 1011.1
20260905231919 27 262 14.5 16.1 0.00 0.00 0.00 45 1010.7
20260905231318 26 231 9.7 12.9 0.00 0.00 0.00 52 1011.1
20260905230716 27 230 11.3 14.5 0.00 0.00 0.00 51 1011.1
20260905230121 27 258 12.9 16.1 0.00 0.00 0.00 50 1011.1
20260905225517 27 248 9.7 11.3 0.00 0.00 0.00 52 1011.1
20260905224918 28 239 14.5 17.7 0.00 0.00 0.00 47 1011.1
20260905224320 27 290 6.4 9.7 0.00 0.00 0.00 51 1011.1
20260905223719 27 214 9.7 11.3 0.00 0.00 0.00 44 1011.4
20260905223119 27 223 11.3 12.9 0.00 0.00 0.00 49 1011.4
20260905222521 28 246 12.9 12.9 0.00 0.00 0.00 44 1011.4
20260905221916 28 215 6.4 9.7 0.00 0.00 0.00 44 1011.4
20260905221317 27 214 16.1 17.7 0.00 0.00 0.00 43 1011.4
20260905220721 28 196 14.5 16.1 0.00 0.00 0.00 43 1011.8
20260905220118 28 231 14.5 16.1 0.00 0.00 0.00 42 1011.8
20260905215516 28 208 6.4 12.9 0.00 0.00 0.00 39 1011.4
20260905214921 28 224 11.3 16.1 0.00 0.00 0.00 42 1011.4
20260905214317 28 224 14.5 16.1 0.00 0.00 0.00 42 1011.8
20260905213717 28 288 4.8 4.8 0.00 0.00 0.00 41 1011.8
20260905213119 28 230 9.7 12.9 0.00 0.00 0.00 41 1011.8
20260905212517 28 264 9.7 11.3 0.00 0.00 0.00 44 1011.8
20260905211915 28 219 11.3 12.9 0.00 0.00 0.00 42 1011.8
20260905211321 27 279 6.4 6.4 0.00 0.00 0.00 50 1012.1
20260905210716 27 271 6.4 11.3 0.00 0.00 0.00 52 1012.1
20260905210116 27 246 9.7 11.3 0.00 0.00 0.00 51 1012.1
20260905205518 27 241 14.5 14.5 0.00 0.00 0.00 53 1012.1
20260905204917 26 197 11.3 14.5 0.00 0.00 0.00 56 1012.1
20260905204317 26 215 12.9 14.5 0.00 0.00 0.00 54 1012.4
20260905203719 26 264 11.3 12.9 0.00 0.00 0.00 58 1012.4
20260905202516 27 234 11.3 12.9 0.00 0.00 0.00 56 1012.4
20260905201918 27 209 9.7 11.3 0.00 0.00 0.00 54 1012.4
20260905201318 27 263 4.8 6.4 0.00 0.00 0.00 56 1012.4
20260905200716 27 211 9.7 12.9 0.00 0.00 0.00 56 1012.4
20260905200121 27 272 9.7 11.3 0.00 0.00 0.00 57 1012.4
20260905195517 27 233 11.3 14.5 0.00 0.00 0.00 55 1012.4
20260905194917 26 243 6.4 9.7 0.00 0.00 0.00 57 1012.8
20260905193722 26 229 12.9 14.5 0.00 0.00 0.00 58 1012.8
20260905192520 26 261 9.7 11.3 0.00 0.00 0.00 59 1012.8
20260905191918 26 228 12.9 12.9 0.00 0.00 0.00 60 1012.8
20260905191317 26 228 9.7 11.3 0.00 0.00 0.00 60 1012.8
20260905190718 26 200 9.7 11.3 0.00 0.00 0.00 60 1013.1
20260905190118 26 210 4.8 6.4 0.00 0.00 0.00 61 1013.1
20260905185516 26 242 8.0 12.9 0.00 0.00 0.00 58 1013.1
20260905184921 26 242 8.0 9.7 0.00 0.00 0.00 58 1013.4
20260905184317 26 218 6.4 9.7 0.00 0.00 0.00 61 1013.4
20260905183718 25 61 6.4 6.4 0.00 0.00 0.00 64 1013.4
20260905183122 25 242 9.7 11.3 0.00 0.00 0.00 64 1013.4
20260905182517 25 216 8.0 9.7 0.00 0.00 0.00 64 1013.4
20260905181915 25 274 4.8 6.4 0.00 0.00 0.00 66 1013.4
20260905180717 25 228 14.5 16.1 0.00 0.00 0.00 62 1013.4
20260905180118 26 221 8.0 12.9 0.00 0.00 0.00 60 1013.4
20260905175519 27 161 8.0 9.7 0.00 0.00 0.00 47 1013.4
20260905174316 26 12 1.6 1.6 0.00 0.00 0.00 53 1013.4
20260905173723 26 191 1.6 3.2 0.00 0.00 0.00 54 1013.4
20260905173117 25 350 1.6 1.6 0.00 0.00 0.00 53 1013.4
20260905172517 25 154 4.8 4.8 0.00 0.00 0.00 54 1013.4
20260905171919 25 256 3.2 3.2 0.00 0.00 0.00 54 1013.4
20260905171320 24 189 6.4 6.4 0.00 0.00 0.00 58 1013.4
20260905170716 25 183 9.7 11.3 0.00 0.00 0.00 56 1013.4
20260905170121 25 241 1.6 1.6 0.00 0.00 0.00 55 1013.4
20260905165516 25 161 4.8 4.8 0.00 0.00 0.00 57 1013.4
20260905164917 25 115 4.8 4.8 0.00 0.00 0.00 56 1013.1
20260905164319 24 158 1.6 1.6 0.00 0.00 0.00 60 1013.1
20260905163717 24 153 3.2 3.2 0.00 0.00 0.00 59 1013.1
20260905163117 24 41 1.6 1.6 0.00 0.00 0.00 61 1013.1
20260905161916 23 140 1.6 3.2 0.00 0.00 0.00 62 1013.1
20260905160719 23 80 4.8 4.8 0.00 0.00 0.00 65 1013.1
20260905160118 23 92 4.8 4.8 0.00 0.00 0.00 66 1012.8
20260905155517 23 27 0.0 1.6 0.00 0.00 0.00 69 1013.1
20260905154316 22 48 3.2 4.8 0.00 0.00 0.00 73 1013.1
20260905153123 22 356 0.0 0.0 0.00 0.00 0.00 74 1012.8
20260905152517 22 40 1.6 3.2 0.00 0.00 0.00 75 1012.8
20260905151918 22 62 0.0 0.0 0.00 0.00 0.00 77 1012.8
20260905151320 21 71 1.6 1.6 0.00 0.00 0.00 77 1013.1
20260905150716 21 33 1.6 1.6 0.00 0.00 0.00 81 1013.1
20260905150117 20 357 0.0 0.0 0.00 0.00 0.00 82 1012.8
20260905145520 19 356 0.0 0.0 0.00 0.00 0.00 84 1012.8
20260905144917 19 356 0.0 0.0 0.00 0.00 0.00 84 1012.8
20260905144319 18 356 0.0 0.0 0.00 0.00 0.00 85 1012.8
20260905143720 18 356 1.6 1.6 0.00 0.00 0.00 85 1012.8
20260905143119 18 356 1.6 1.6 0.00 0.00 0.00 86 1012.4
20260905142518 18 355 0.0 0.0 0.00 0.00 0.00 87 1012.4
20260905141919 18 354 0.0 0.0 0.00 0.00 0.00 88 1012.4
20260905141318 17 345 1.6 1.6 0.00 0.00 0.00 88 1012.4
20260905140716 17 339 0.0 0.0 0.00 0.00 0.00 88 1012.4
20260905140121 17 336 1.6 1.6 0.00 0.00 0.00 88 1012.4
20260905135517 17 335 0.0 1.6 0.00 0.00 0.00 88 1012.4
20260905134917 17 335 0.0 0.0 0.00 0.00 0.00 88 1012.4
20260905133717 17 1 1.6 1.6 0.00 0.00 0.00 88 1012.1
20260905132520 17 358 3.2 3.2 0.00 0.00 0.00 89 1011.8
20260905131916 17 13 3.2 3.2 0.00 0.00 0.00 89 1011.8
20260905131317 17 3 1.6 3.2 0.00 0.00 0.00 88 1011.8
20260905130720 17 352 0.0 1.6 0.00 0.00 0.00 89 1011.8
20260905130119 17 338 1.6 1.6 0.00 0.00 0.00 88 1011.8
20260905125517 17 343 0.0 0.0 0.00 0.00 0.00 88 1011.8
20260905124920 17 340 0.0 1.6 0.00 0.00 0.00 88 1011.8
20260905124318 17 336 0.0 0.0 0.00 0.00 0.00 88 1011.8
20260905123718 17 335 1.6 1.6 0.00 0.00 0.00 88 1011.8
20260905123121 17 349 1.6 1.6 0.00 0.00 0.00 88 1011.8
20260905122523 17 354 3.2 3.2 0.00 0.00 0.00 88 1011.8
20260905121324 17 14 3.2 3.2 0.00 0.00 0.00 88 1011.8
20260905120716 17 340 0.0 1.6 0.00 0.00 0.00 88 1011.8
20260905120117 17 340 0.0 0.0 0.00 0.00 0.00 88 1011.8
20260905114919 17 344 1.6 3.2 0.00 0.00 0.00 88 1011.8
20260905114317 17 325 1.6 1.6 0.00 0.00 0.00 88 1011.8
20260905113720 17 336 1.6 1.6 0.00 0.00 0.00 88 1011.8
20260905113116 17 338 0.0 0.0 0.00 0.00 0.00 88 1011.8
20260905111923 17 336 0.0 1.6 0.00 0.00 0.00 87 1011.8
20260905111318 17 332 1.6 1.6 0.00 0.00 0.00 87 1012.1
20260905110717 17 330 1.6 1.6 0.00 0.00 0.00 87 1012.1
20260905110120 17 334 1.6 3.2 0.00 0.00 0.00 87 1012.1
20260905105518 17 335 0.0 0.0 0.00 0.00 0.00 87 1012.1
20260905104917 17 335 0.0 0.0 0.00 0.00 0.00 87 1012.1
20260905104319 17 335 0.0 0.0 0.00 0.00 0.00 87 1012.1
20260905103120 17 333 1.6 1.6 0.00 0.00 0.00 87 1012.1
20260905102520 17 338 0.0 0.0 0.00 0.00 0.00 87 1012.1
20260905101916 17 346 0.0 0.0 0.00 0.00 0.00 86 1012.1
20260905101316 18 345 0.0 0.0 0.00 0.00 0.00 86 1012.1
20260905100118 18 334 0.0 0.0 0.00 0.00 0.00 86 1012.1
20260905095517 18 359 4.8 4.8 0.00 0.00 0.00 86 1012.1
20260905094924 18 16 4.8 4.8 0.00 0.00 0.00 85 1012.1
20260905093718 18 17 3.2 4.8 0.00 0.00 0.00 85 1012.1
20260905093121 18 16 3.2 3.2 0.00 0.00 0.00 85 1012.1
20260905091320 18 338 1.6 3.2 0.00 0.00 0.00 84 1012.1
20260905090716 18 333 1.6 3.2 0.00 0.00 0.00 84 1012.1
20260905090117 18 336 0.0 1.6 0.00 0.00 0.00 83 1012.1
20260905085520 18 341 0.0 1.6 0.00 0.00 0.00 83 1012.1
20260905084917 18 343 1.6 1.6 0.00 0.00 0.00 83 1012.1
20260905083116 18 337 1.6 1.6 0.00 0.00 0.00 83 1012.4
20260905082518 18 331 1.6 1.6 0.00 0.00 0.00 83 1012.4
20260905081919 18 330 1.6 1.6 0.00 0.00 0.00 82 1012.4
20260905081319 18 339 1.6 1.6 0.00 0.00 0.00 83 1012.4
20260905080718 19 353 0.0 1.6 0.00 0.00 0.00 83 1012.4
20260905080121 19 8 1.6 1.6 0.00 0.00 0.00 83 1012.4
20260905074918 19 350 1.6 1.6 0.00 0.00 0.00 82 1012.4
20260905073718 19 17 4.8 4.8 0.00 0.00 0.00 81 1012.1
20260905073118 19 21 3.2 3.2 0.00 0.00 0.00 81 1012.4
20260905072524 19 359 1.6 1.6 0.00 0.00 0.00 81 1012.1
20260905071919 19 352 1.6 1.6 0.00 0.00 0.00 80 1012.1
20260905071319 19 5 1.6 3.2 0.00 0.00 0.00 79 1012.1
20260905070720 19 336 1.6 1.6 0.00 0.00 0.00 79 1012.4
20260905070119 20 0 3.2 3.2 0.00 0.00 0.00 80 1012.1
20260905065517 19 6 3.2 3.2 0.00 0.00 0.00 78 1012.1
20260905064924 19 354 1.6 1.6 0.00 0.00 0.00 78 1012.1
20260905064318 19 359 1.6 1.6 0.00 0.00 0.00 78 1011.8
20260905063121 19 347 1.6 1.6 0.00 0.00 0.00 79 1012.1
20260905062518 19 351 1.6 1.6 0.00 0.00 0.00 79 1012.1
20260905060719 19 336 0.0 1.6 0.00 0.00 0.00 79 1012.1
20260905060120 19 349 1.6 1.6 0.00 0.00 0.00 79 1011.8
20260905054923 19 34 4.8 4.8 0.00 0.00 0.00 79 1012.1
20260905054318 19 341 0.0 0.0 0.00 0.00 0.00 79 1011.8
20260905053721 20 322 1.6 1.6 0.00 0.00 0.00 80 1012.1
20260905051920 20 12 3.2 3.2 0.00 0.00 0.00 82 1012.1
20260905051320 20 0 3.2 3.2 0.00 0.00 0.00 82 1012.1
20260905050122 20 336 1.6 1.6 0.00 0.00 0.00 83 1012.1
20260905045519 20 9 3.2 3.2 0.00 0.00 0.00 84 1011.8
20260905044918 19 335 1.6 1.6 0.00 0.00 0.00 84 1011.8
20260905043122 20 299 0.0 1.6 0.00 0.00 0.00 86 1011.8
20260905042521 20 299 0.0 1.6 0.00 0.00 0.00 86 1011.8
20260905041918 20 299 0.0 0.0 0.00 0.00 0.00 86 1011.8
20260905041321 20 295 3.2 3.2 0.00 0.00 0.00 86 1011.4
20260905040119 20 228 0.0 0.0 0.00 0.00 0.00 86 1011.4
20260905035516 20 227 3.2 3.2 0.00 0.00 0.00 86 1011.8
20260905034922 20 275 1.6 1.6 0.00 0.00 0.00 86 1011.4
20260905034318 20 285 1.6 3.2 0.00 0.00 0.00 85 1011.4
20260905033716 20 244 1.6 1.6 0.00 0.00 0.00 85 1011.1
20260905033121 20 261 0.0 1.6 0.00 0.00 0.00 85 1011.4
20260905032518 20 266 0.0 1.6 0.00 0.00 0.00 85 1011.1
20260905031916 20 226 1.6 3.2 0.00 0.00 0.00 84 1011.1
20260905031322 20 242 1.6 3.2 0.00 0.00 0.00 84 1011.1
20260905030718 20 258 1.6 1.6 0.00 0.00 0.00 83 1010.7
20260905030122 20 248 3.2 4.8 0.00 0.00 0.00 83 1010.7
20260905024946 20 257 3.2 3.2 0.00 0.00 0.00 83 1010.7
20260905024318 20 247 6.4 9.7 0.00 0.00 0.00 83 1010.7
20260905023722 21 267 6.4 6.4 0.00 0.00 0.00 82 1010.7
20260905023119 21 260 6.4 6.4 0.00 0.00 0.00 82 1010.7
20260905022523 21 253 6.4 6.4 0.00 0.00 0.00 81 1010.7
20260905021920 21 255 4.8 4.8 0.00 0.00 0.00 80 1010.7
20260905021318 21 282 6.4 9.7 0.00 0.00 0.00 79 1011.1
20260905020719 21 274 6.4 9.7 0.00 0.00 0.00 78 1011.1
20260905020122 21 286 6.4 9.7 0.00 0.00 0.00 78 1011.1
20260905015144 21 257 4.8 16.1 0.00 0.00 0.00 77 1011.1
20260905014603 22 242 12.9 16.1 0.00 0.00 0.00 76 1011.1
20260905014104 21 259 3.2 12.9 0.00 0.00 0.00 77 1011.1
20260905013604 21 289 6.4 12.9 0.00 0.00 0.00 76 1011.1
20260905013103 22 259 4.8 14.5 0.00 0.00 0.00 76 1011.1
20260905012035 22 262 6.4 14.5 0.00 0.00 0.00 74 1011.1
20260905011003 22 205 9.7 17.7 0.00 0.00 0.00 75 1011.4
20260905010503 22 223 8.0 17.7 0.00 0.00 0.00 74 1011.4
20260905010003 22 295 3.2 17.7 0.00 0.00 0.00 74 1011.4